Regional Weather Roundup
Issued by NWS State College, PA

Home | Current Version | Previous Version | Graphics & Text | Print | Product List | Glossary On
Versions: 1 2 3 4 5 6 7 8 9 10 11 12 13 14 15 16 17 18 19 20 21 22 23 24 25 26 27 28 29 30 31 32 33 34 35 36 37 38 39 40 41 42 43 44 45 46 47 48 49 50
000
ASUS41 KCTP 292110
RWRCTP

REGIONAL WEATHER ROUNDUP
NATIONAL WEATHER SERVICE STATE COLLEGE PA
500 PM EDT MON AUG 29 2016

Note: "fair" indicates few or no clouds below 12,000 feet with no
significant weather and/or obstructions to visibility.

* = STATION THAT DOES NOT REPORT PRECIPITATION /E.G. RAIN...SNOW...ETC/
    THUNDER OR FOG.

PAZ002>004-007>009-013>016-020>023-029>032-292200-
WESTERN PENNSYLVANIA

CITY           SKY/WX    TMP DP  RH WIND       PRES   REMARKS
ERIE           SUNNY     80  54  40 NE7       30.23S
MEADVILLE      SUNNY     79  59  50 N10       30.23F
FRANKLIN*        N/A     82  57  42 N5        30.23F
NEW CASTLE     FAIR      84  59  42 NW6       30.21F
BEAVER COUNTY  SUNNY     86  57  37 NW3       30.21F
BUTLER*        NOT AVBL
PITTSBURGH INT MOSUNNY   86  53  32 VRB7      30.19F
PITTSBURGH     SUNNY     85  60  42 N5        30.19F
INDIANA*       SUNNY     82  59  44 NW7       30.22F
LATROBE        SUNNY     81  64  57 N6        30.20F
WASHINGTON CO* MOSUNNY   82  64  54 CALM      30.21F
$$

PAZ004>006-010>012-017>019-024>028-033>037-041-042-045-046-049>053-292200-
CENTRAL PENNSYLVANIA

CITY           SKY/WX    TMP DP  RH WIND       PRES   REMARKS
BRADFORD       SUNNY     79  58  48 N7        30.24F
DUBOIS         SUNNY     81  53  37 NW9       30.21F
CLEARFIELD     NOT AVBL
JOHNSTOWN      SUNNY     80  61  52 NW7       30.24S
ALTOONA        SUNNY     84  62  47 N8        30.19F
STATE COLLEGE  SUNNY     84  61  45 W6        30.17F
WILLIAMSPORT   MOSUNNY   86  58  38 NW5       30.13S
SELINSGROVE    SUNNY     87  63  44 N8        30.13F
FT INDIANTOWN  SUNNY     88  60  38 NW5       30.11F
CAPITAL CITY   SUNNY     92  57  30 NE6       30.09F
HARRISBURG     MOSUNNY   90  62  39 N7        30.09F
YORK           SUNNY     91  63  39 NE6       30.10F
$$

PAZ038>040-043-044-047-048-054-055-060>062-067>071-292200-
EASTERN PENNSYLVANIA

CITY           SKY/WX    TMP DP  RH WIND       PRES   REMARKS
SCRANTON       MOSUNNY   83  60  45 NW12      30.15F
MOUNT POCONO   SUNNY     77  57  50 NW10G18   30.19F
ALLENTOWN      SUNNY     88  59  37 N9        30.11S
QUAKERTOWN*    CLEAR     88  59  37 CALM      30.11S
READING        SUNNY     88  61  40 NW12      30.09S
LANCASTER      SUNNY     89  64  43 N10       30.10F
COATESVILLE    CLEAR     88  63  42 N7        30.11F
POTTSTOWN      MOSUNNY   88  62  41 W5        30.10F
BLUE BELL      SUNNY     88  59  37 NW7       30.07S
DOYLESTOWN     SUNNY     92  61  35 N8        30.08F
WILLOW GROVE   NOT AVBL
NORTH PHILA    SUNNY     93  61  34 N13       30.07S
PHILADELPHIA   MOSUNNY   93  62  35 N10       30.05F
$$




USA.gov is the U.S. government's official web portal to all federal, state and local government web resources and services.